FW6550 Weather Reports


time (UTC)temp
F
wind
direction
speed
knots
gust
knots
rain 1hr
in
rain 24hr
in
rain mn
in
humidity
%
barometer
mb
20260903152521 94 0 0.0 4.3 0.00 0.00 0.00 60 1017.3
20260903152024 93 0 0.0 4.3 0.00 0.00 0.00 60 1017.2
20260903151548 93 15 0.9 4.3 0.00 0.00 0.00 58 1017.3
20260903151018 93 0 0.0 2.6 0.00 0.00 0.00 60 1017.2
20260903150520 92 0 0.0 2.6 0.00 0.00 0.00 61 1017.2
20260903150046 92 0 0.0 2.6 0.00 0.00 0.00 63 1017.2
20260903145520 92 60 0.0 1.7 0.00 0.00 0.00 64 1017.3
20260903145017 91 0 0.0 1.7 0.00 0.00 0.00 66 1017.4
20260903144540 91 0 0.0 1.7 0.00 0.00 0.00 65 1017.3
20260903144022 91 0 0.0 1.7 0.00 0.00 0.00 67 1017.4
20260903143521 90 0 0.0 1.7 0.00 0.00 0.00 67 1017.4
20260903143038 90 0 0.0 1.7 0.00 0.00 0.00 66 1017.2
20260903142518 90 0 0.0 1.7 0.00 0.00 0.00 68 1017.2
20260903142025 89 0 0.0 0.9 0.00 0.00 0.00 70 1017.2
20260903141541 89 0 0.0 1.7 0.00 0.00 0.00 69 1017.1
20260903141017 88 39 0.0 1.7 0.00 0.00 0.00 69 1017.1
20260903140517 88 39 0.0 3.5 0.00 0.00 0.00 68 1017.2
20260903140055 88 0 0.0 3.5 0.00 0.00 0.00 70 1017.0
20260903135517 88 0 0.0 1.7 0.00 0.00 0.00 69 1017.1
20260903135022 87 0 0.0 1.7 0.00 0.00 0.00 71 1017.1
20260903134544 87 0 0.0 1.7 0.00 0.00 0.00 71 1017.2
20260903134018 86 0 0.0 1.7 0.00 0.00 0.00 72 1017.3
20260903133525 86 0 0.0 1.7 0.00 0.00 0.00 72 1017.4
20260903133042 85 0 0.0 1.7 0.00 0.00 0.00 74 1017.3
20260903132518 84 0 0.0 1.7 0.00 0.00 0.00 74 1017.3
20260903132017 83 0 0.0 1.7 0.00 0.00 0.00 74 1017.2
20260903131542 82 0 0.0 0.0 0.00 0.00 0.00 73 1017.3
20260903131018 81 0 0.0 0.0 0.00 0.00 0.00 71 1017.3
20260903130521 80 0 0.0 0.0 0.00 0.00 0.00 71 1017.1
20260903130041 79 0 0.0 1.7 0.00 0.00 0.00 68 1017.2
20260903125517 79 0 0.0 1.7 0.00 0.00 0.00 67 1017.1
20260903125020 78 0 0.0 0.9 0.00 0.00 0.00 62 1017.1
20260903124539 78 140 0.0 0.0 0.00 0.00 0.00 57 1017.1
20260903124021 78 0 0.0 0.9 0.00 0.00 0.00 54 1017.3
20260903123521 78 0 0.0 0.9 0.00 0.00 0.00 46 1017.3
20260903123043 77 0 0.0 0.0 0.00 0.00 0.00 43 1017.4
20260903122520 77 0 0.0 0.0 0.00 0.00 0.00 40 1017.2
20260903122019 77 0 0.0 0.0 0.00 0.00 0.00 42 1017.3
20260903121540 77 0 0.0 0.0 0.00 0.00 0.00 39 1017.2
20260903121024 76 0 0.0 0.0 0.00 0.00 0.00 40 1017.2
20260903120520 76 0 0.0 0.0 0.00 0.00 0.00 41 1017.1
20260903120047 76 0 0.0 0.0 0.00 0.00 0.00 41 1017.1
20260903115523 76 0 0.0 0.0 0.00 0.00 0.00 42 1017.1
20260903115020 76 0 0.0 0.0 0.00 0.00 0.00 41 1017.0
20260903114600 76 0 0.0 0.0 0.00 0.00 0.00 40 1017.0
20260903114021 76 0 0.0 0.0 0.00 0.00 0.00 41 1016.7
20260903113522 76 0 0.0 0.0 0.00 0.00 0.00 44 1016.8
20260903113040 76 0 0.0 0.0 0.00 0.00 0.00 46 1016.5
20260903112519 76 0 0.0 0.0 0.00 0.00 0.00 45 1016.5
20260903112018 76 0 0.0 0.0 0.00 0.00 0.00 46 1016.5
20260903111540 76 0 0.0 0.0 0.00 0.00 0.00 46 1016.4
20260903111020 76 0 0.0 0.0 0.00 0.00 0.00 47 1016.3
20260903110521 76 0 0.0 0.0 0.00 0.00 0.00 46 1016.4
20260903110044 76 0 0.0 0.0 0.00 0.00 0.00 47 1016.3
20260903105520 76 0 0.0 0.0 0.00 0.00 0.00 47 1016.4
20260903105020 76 0 0.0 0.0 0.00 0.00 0.00 48 1016.4
20260903104541 77 0 0.0 0.0 0.00 0.00 0.00 47 1016.3
20260903104018 77 0 0.0 0.0 0.00 0.00 0.00 47 1016.1
20260903103520 76 0 0.0 0.0 0.00 0.00 0.00 47 1016.2
20260903103042 77 0 0.0 0.0 0.00 0.00 0.00 48 1016.1
20260903102518 77 0 0.0 0.0 0.00 0.00 0.00 50 1016.2
20260903102022 77 0 0.0 0.0 0.00 0.00 0.00 49 1016.1
20260903101542 77 0 0.0 0.0 0.00 0.00 0.00 49 1016.1
20260903101019 77 0 0.0 0.0 0.00 0.00 0.00 49 1016.0
20260903100520 77 0 0.0 0.0 0.00 0.00 0.00 50 1016.1
20260903100041 77 0 0.0 0.0 0.00 0.00 0.00 52 1016.0
20260903095517 77 0 0.0 0.0 0.00 0.00 0.00 52 1016.0
20260903095021 77 0 0.0 0.0 0.00 0.00 0.00 53 1016.0
20260903094542 77 0 0.0 0.0 0.00 0.00 0.00 54 1016.1
20260903094017 77 0 0.0 0.0 0.00 0.00 0.00 54 1016.0
20260903093521 77 0 0.0 0.0 0.00 0.00 0.00 55 1016.0
20260903093052 77 0 0.0 0.0 0.00 0.00 0.00 55 1016.1
20260903092518 77 0 0.0 0.0 0.00 0.00 0.00 55 1016.0
20260903092020 77 0 0.0 0.0 0.00 0.00 0.00 57 1016.0
20260903091541 77 0 0.0 0.0 0.00 0.00 0.00 58 1016.1
20260903091020 77 0 0.0 0.0 0.00 0.00 0.00 58 1016.1
20260903090523 77 0 0.0 0.0 0.00 0.00 0.00 60 1016.2
20260903090040 77 0 0.0 0.0 0.00 0.00 0.00 60 1016.1
20260903085520 78 0 0.0 0.0 0.00 0.00 0.00 58 1016.2
20260903085018 78 0 0.0 0.0 0.00 0.00 0.00 57 1016.2
20260903084537 78 0 0.0 0.0 0.00 0.00 0.00 59 1016.2
20260903084020 78 0 0.0 0.0 0.00 0.00 0.00 57 1016.0
20260903083521 78 0 0.0 0.0 0.00 0.00 0.00 58 1016.2
20260903083042 78 0 0.0 0.0 0.00 0.00 0.00 58 1016.1
20260903082520 78 0 0.0 0.0 0.00 0.00 0.00 59 1016.2
20260903082020 78 0 0.0 0.0 0.00 0.00 0.00 57 1015.9
20260903081541 78 0 0.0 0.0 0.00 0.00 0.00 57 1016.0
20260903081017 78 0 0.0 0.0 0.00 0.00 0.00 58 1016.0
20260903080520 78 0 0.0 0.0 0.00 0.00 0.00 58 1015.9
20260903080042 78 0 0.0 0.0 0.00 0.00 0.00 59 1015.9
20260903075519 78 0 0.0 0.0 0.00 0.00 0.00 61 1016.0
20260903075025 78 0 0.0 0.0 0.00 0.00 0.00 60 1015.9
20260903074550 78 0 0.0 0.0 0.00 0.00 0.00 61 1015.9
20260903074025 78 0 0.0 0.0 0.00 0.00 0.00 60 1016.0
20260903073524 78 0 0.0 0.0 0.00 0.00 0.00 61 1015.9
20260903073044 78 0 0.0 0.0 0.00 0.00 0.00 60 1015.8
20260903072519 78 0 0.0 0.0 0.00 0.00 0.00 61 1015.9
20260903072021 78 0 0.0 0.0 0.00 0.00 0.00 62 1015.9
20260903071539 79 0 0.0 0.0 0.00 0.00 0.00 63 1015.9
20260903071022 79 0 0.0 0.0 0.00 0.00 0.00 63 1016.0
20260903070520 79 0 0.0 0.0 0.00 0.00 0.00 64 1016.0
20260903070045 79 0 0.0 0.0 0.00 0.00 0.00 65 1016.0
20260903065521 79 0 0.0 0.0 0.00 0.00 0.00 64 1016.0
20260903065020 79 0 0.0 0.0 0.00 0.00 0.00 64 1016.0
20260903064539 79 0 0.0 0.0 0.00 0.00 0.00 66 1016.0
20260903064020 79 0 0.0 0.0 0.00 0.00 0.00 66 1016.0
20260903063520 79 0 0.0 0.0 0.00 0.00 0.00 66 1016.1
20260903063039 79 0 0.0 0.0 0.00 0.00 0.00 66 1016.2
20260903062521 79 0 0.0 0.0 0.00 0.00 0.00 66 1016.3
20260903062019 79 0 0.0 0.0 0.00 0.00 0.00 66 1016.1
20260903061544 79 0 0.0 0.0 0.00 0.00 0.00 67 1016.3
20260903061018 79 0 0.0 0.0 0.00 0.00 0.00 67 1016.4
20260903060521 79 0 0.0 0.0 0.00 0.00 0.00 68 1016.4
20260903060043 80 0 0.0 0.0 0.00 0.00 0.00 68 1016.3
20260903055520 80 0 0.0 0.0 0.00 0.00 0.00 68 1016.4
20260903055022 80 0 0.0 0.0 0.00 0.00 0.00 69 1016.4
20260903054541 80 0 0.0 0.0 0.00 0.00 0.00 68 1016.4
20260903054018 80 0 0.0 0.0 0.00 0.00 0.00 69 1016.4
20260903053520 80 0 0.0 0.0 0.00 0.00 0.00 70 1016.5
20260903053037 80 0 0.0 0.0 0.00 0.00 0.00 71 1016.4
20260903052518 80 0 0.0 0.0 0.00 0.00 0.00 70 1016.4
20260903052021 80 0 0.0 0.0 0.00 0.00 0.00 71 1016.3
20260903051542 80 0 0.0 0.0 0.00 0.00 0.00 71 1016.3
20260903051020 80 0 0.0 0.0 0.00 0.00 0.00 71 1016.4
20260903050523 80 0 0.0 0.0 0.00 0.00 0.00 71 1016.2
20260903050057 80 0 0.0 0.0 0.00 0.00 0.00 71 1016.2
20260903045520 80 0 0.0 0.0 0.00 0.00 0.00 71 1016.2
20260903045018 80 0 0.0 0.0 0.00 0.00 0.00 72 1016.2
20260903044537 80 0 0.0 0.0 0.00 0.00 0.00 72 1016.2
20260903044021 80 0 0.0 0.0 0.00 0.00 0.00 72 1016.2
20260903043521 80 0 0.0 0.0 0.00 0.00 0.00 72 1016.1
20260903043039 80 0 0.0 0.0 0.00 0.00 0.00 72 1016.1
20260903042518 80 0 0.0 0.0 0.00 0.00 0.00 72 1016.2
20260903042018 81 0 0.0 0.0 0.00 0.00 0.00 72 1016.1
20260903041541 81 0 0.0 0.0 0.00 0.00 0.00 73 1016.0
20260903041020 81 0 0.0 0.0 0.00 0.00 0.00 73 1016.1
20260903040521 81 0 0.0 0.0 0.00 0.00 0.00 73 1016.1
20260903040042 81 0 0.0 0.0 0.00 0.00 0.00 73 1016.3
20260903035516 81 0 0.0 0.0 0.00 0.00 0.00 73 1016.3
20260903035020 81 0 0.0 0.0 0.00 0.00 0.00 73 1016.3
20260903034542 81 0 0.0 0.0 0.00 0.00 0.00 74 1016.3
20260903034021 81 0 0.0 0.0 0.00 0.00 0.00 74 1016.5
20260903033522 81 0 0.0 0.0 0.00 0.00 0.00 74 1016.4
20260903033042 81 0 0.0 0.0 0.00 0.00 0.00 74 1016.5
20260903032518 81 0 0.0 0.0 0.00 0.00 0.00 74 1016.5
20260903032021 82 0 0.0 0.0 0.00 0.00 0.00 74 1016.5
20260903031540 82 0 0.0 0.0 0.00 0.00 0.00 74 1016.5
20260903031019 82 0 0.0 0.0 0.00 0.00 0.00 74 1016.7
20260903030523 82 0 0.0 0.0 0.00 0.00 0.00 74 1016.5
20260903030038 82 0 0.0 0.0 0.00 0.00 0.00 74 1016.6
20260903025520 82 0 0.0 0.0 0.00 0.00 0.00 74 1016.6
20260903025018 82 0 0.0 0.0 0.00 0.00 0.00 74 1016.5
20260903024544 82 0 0.0 0.0 0.00 0.00 0.00 74 1016.7
20260903024019 83 0 0.0 0.0 0.00 0.00 0.00 74 1016.7
20260903023520 83 0 0.0 0.0 0.00 0.00 0.00 74 1016.8
20260903023039 83 0 0.0 0.0 0.00 0.00 0.00 74 1016.7
20260903022517 83 0 0.0 0.0 0.00 0.00 0.00 73 1016.6
20260903022021 83 0 0.0 0.0 0.00 0.00 0.00 73 1016.5
20260903021540 83 0 0.0 0.0 0.00 0.00 0.00 72 1016.3
20260903021024 84 0 0.0 0.0 0.00 0.00 0.00 72 1016.2
20260903020520 84 0 0.0 0.0 0.00 0.00 0.00 72 1016.2
20260903020038 84 0 0.0 0.0 0.00 0.00 0.00 72 1016.1
20260903015520 84 0 0.0 0.0 0.00 0.00 0.00 72 1016.3
20260903015019 84 0 0.0 0.0 0.00 0.00 0.00 72 1016.2
20260903014558 85 0 0.0 0.0 0.00 0.00 0.00 71 1016.2
20260903014021 85 0 0.0 0.0 0.00 0.00 0.00 71 1016.3
20260903013520 85 0 0.0 0.0 0.00 0.00 0.00 71 1016.1
20260903013040 85 0 0.0 0.0 0.00 0.00 0.00 70 1016.1
20260903012520 86 0 0.0 0.0 0.00 0.00 0.00 69 1016.0
20260903012017 86 0 0.0 0.0 0.00 0.00 0.00 69 1015.9
20260903011540 86 0 0.0 0.0 0.00 0.00 0.00 69 1015.9
20260903011024 86 0 0.0 0.0 0.00 0.00 0.00 68 1016.0
20260903010523 87 0 0.0 0.0 0.00 0.00 0.00 68 1015.8
20260903010044 87 0 0.0 0.0 0.00 0.00 0.00 67 1015.8
20260903005519 87 0 0.0 0.0 0.00 0.00 0.00 66 1015.7
20260903005024 88 0 0.0 0.0 0.00 0.00 0.00 66 1015.7
20260903004540 88 0 0.0 0.0 0.00 0.00 0.00 65 1015.6
20260903004019 88 0 0.0 0.0 0.00 0.00 0.00 64 1015.6
20260903003518 88 0 0.0 0.0 0.00 0.00 0.00 64 1015.6
20260903003042 89 0 0.0 0.0 0.00 0.00 0.00 64 1015.6
20260903002525 89 0 0.0 0.9 0.00 0.00 0.00 63 1015.6
20260903002025 89 0 0.0 0.9 0.00 0.00 0.00 62 1015.6
20260903001542 89 0 0.0 2.6 0.00 0.00 0.00 62 1015.6
20260903001021 90 0 0.0 2.6 0.00 0.00 0.00 61 1015.7
20260903000521 90 84 0.0 2.6 0.00 0.00 0.00 60 1015.6
20260903000041 90 0 0.0 2.6 0.00 0.00 0.00 60 1015.7
20260902235518 90 0 0.0 2.6 0.00 0.00 0.00 59 1015.8
20260902235021 91 0 0.0 2.6 0.00 0.00 0.00 59 1015.8
20260902234542 91 0 0.0 2.6 0.00 0.00 0.00 58 1015.6
20260902234023 91 0 0.0 4.3 0.00 0.00 0.00 58 1015.6
20260902233524 91 0 0.0 5.2 0.00 0.00 0.00 57 1015.5
20260902233041 91 0 0.0 5.2 0.00 0.00 0.00 57 1015.7
20260902232524 92 0 0.0 2.6 0.00 0.00 0.00 57 1015.7
20260902232024 92 0 0.0 1.7 0.00 0.00 0.00 57 1015.7
20260902231543 92 0 0.0 0.9 0.00 0.00 0.00 57 1015.6
20260902231023 93 0 0.0 0.0 0.00 0.00 0.00 56 1015.6
20260902230518 93 0 0.0 0.9 0.00 0.00 0.00 55 1015.5
20260902230043 94 0 0.0 0.9 0.00 0.00 0.00 55 1015.5
20260902225524 94 0 0.0 0.9 0.00 0.00 0.00 55 1015.5
20260902225020 95 0 0.0 1.7 0.00 0.00 0.00 54 1015.6
20260902224545 95 0 0.0 2.6 0.00 0.00 0.00 52 1015.5
20260902224017 96 0 0.0 3.5 0.00 0.00 0.00 51 1015.7
20260902223521 96 0 0.0 3.5 0.00 0.00 0.00 51 1015.8
20260902223039 97 0 0.9 2.6 0.00 0.00 0.00 50 1015.7
20260902222519 97 0 0.0 1.7 0.00 0.00 0.00 48 1015.9
20260902222017 97 0 0.0 1.7 0.00 0.00 0.00 48 1015.9
20260902221542 97 0 0.0 1.7 0.00 0.00 0.00 46 1015.7
20260902221021 98 0 0.0 1.7 0.00 0.00 0.00 48 1015.6
20260902220524 98 0 0.0 5.2 0.00 0.00 0.00 47 1015.6
20260902220042 98 0 0.0 5.2 0.00 0.00 0.00 46 1015.5
20260902215529 98 76 0.9 5.2 0.00 0.00 0.00 46 1015.5
20260902215021 98 0 0.0 2.6 0.00 0.00 0.00 47 1015.5
20260902214543 98 119 0.0 2.6 0.00 0.00 0.00 46 1015.6
20260902214020 98 49 0.0 2.6 0.00 0.00 0.00 47 1015.6
20260902213518 98 0 0.0 2.6 0.00 0.00 0.00 47 1015.5
20260902213042 98 0 0.0 2.6 0.00 0.00 0.00 45 1015.5
20260902212523 98 128 0.0 2.6 0.00 0.00 0.00 45 1015.5
20260902212020 98 0 0.0 3.5 0.00 0.00 0.00 45 1015.6
20260902211540 99 0 0.0 3.5 0.00 0.00 0.00 45 1015.6
20260902211019 99 93 0.9 4.3 0.00 0.00 0.00 44 1015.5
20260902210516 100 0 0.0 4.3 0.00 0.00 0.00 45 1015.6
20260902210050 99 160 0.9 4.3 0.00 0.00 0.00 45 1015.4
20260902205522 99 0 0.0 2.6 0.00 0.00 0.00 45 1015.6
20260902205021 99 41 0.0 5.2 0.00 0.00 0.00 44 1015.6
20260902204539 99 0 0.0 5.2 0.00 0.00 0.00 45 1015.6
20260902204021 99 198 0.9 5.2 0.00 0.00 0.00 45 1015.5
20260902203520 99 163 0.0 4.3 0.00 0.00 0.00 46 1015.7
20260902203041 99 31 0.0 4.3 0.00 0.00 0.00 46 1015.7
20260902202520 99 0 0.0 4.3 0.00 0.00 0.00 46 1015.9
20260902202019 99 360 0.0 2.6 0.00 0.00 0.00 45 1015.8
20260902201538 99 0 0.0 1.7 0.00 0.00 0.00 44 1016.0
20260902201024 99 269 0.0 1.7 0.00 0.00 0.00 45 1016.1
20260902200520 100 0 0.0 1.7 0.00 0.00 0.00 43 1016.2
20260902200041 99 0 0.0 1.7 0.00 0.00 0.00 47 1016.2
20260902195520 99 0 0.0 5.2 0.00 0.00 0.00 45 1016.2
20260902195020 99 0 0.0 5.2 0.00 0.00 0.00 44 1016.3
20260902194540 98 66 0.0 1.7 0.00 0.00 0.00 51 1016.3
20260902194020 97 0 0.0 1.7 0.00 0.00 0.00 50 1016.4
20260902193519 97 0 0.0 2.6 0.00 0.00 0.00 49 1016.5
20260902193037 97 0 0.0 2.6 0.00 0.00 0.00 47 1016.7
20260902192518 97 0 0.0 2.6 0.00 0.00 0.00 48 1016.8
20260902192020 98 0 0.0 2.6 0.00 0.00 0.00 47 1016.8
20260902191541 98 0 0.0 3.5 0.00 0.00 0.00 46 1016.9
20260902191017 98 0 0.0 3.5 0.00 0.00 0.00 45 1017.1
20260902190520 99 0 0.0 2.6 0.00 0.00 0.00 45 1017.0
20260902190047 99 0 0.0 2.6 0.00 0.00 0.00 44 1017.1
20260902185518 100 0 0.0 3.5 0.00 0.00 0.00 44 1017.2
20260902185018 100 0 0.9 3.5 0.00 0.00 0.00 44 1017.3
20260902184539 100 0 0.9 3.5 0.00 0.00 0.00 49 1017.3
20260902184025 99 0 0.9 4.3 0.00 0.00 0.00 44 1017.3
20260902183524 99 231 0.9 4.3 0.00 0.00 0.00 46 1017.3
20260902183041 99 0 0.0 3.5 0.00 0.00 0.00 49 1017.5
20260902182521 98 0 0.0 2.6 0.00 0.00 0.00 48 1017.5
20260902182021 98 0 0.0 2.6 0.00 0.00 0.00 51 1017.6
20260902181542 99 0 0.0 2.6 0.00 0.00 0.00 46 1017.7
20260902181020 99 0 0.0 1.7 0.00 0.00 0.00 43 1017.8
20260902180517 100 0 0.0 3.5 0.00 0.00 0.00 45 1017.8
20260902180043 100 187 0.0 3.5 0.00 0.00 0.00 45 1017.8
20260902175521 100 164 0.0 6.1 0.00 0.00 0.00 45 1017.9
20260902175024 100 177 1.7 6.1 0.00 0.00 0.00 46 1017.9
20260902174538 99 0 0.9 5.2 0.00 0.00 0.00 47 1018.0
20260902174020 99 155 0.9 3.5 0.00 0.00 0.00 50 1018.1
20260902173518 99 259 0.0 3.5 0.00 0.00 0.00 50 1018.2
20260902173041 99 0 0.0 3.5 0.00 0.00 0.00 47 1018.4
20260902172521 99 202 0.0 3.5 0.00 0.00 0.00 49 1018.3
20260902172018 99 161 0.0 3.5 0.00 0.00 0.00 53 1018.5
20260902171542 98 124 0.0 2.6 0.00 0.00 0.00 52 1018.4
20260902171016 98 136 0.0 3.5 0.00 0.00 0.00 51 1018.8
20260902170518 98 0 0.9 3.5 0.00 0.00 0.00 49 1018.7
20260902170041 97 195 0.9 3.5 0.00 0.00 0.00 52 1018.9
20260902165518 97 265 0.0 2.6 0.00 0.00 0.00 57 1018.9
20260902165025 97 0 0.0 2.6 0.00 0.00 0.00 52 1019.1
20260902164536 97 0 0.0 3.5 0.00 0.00 0.00 51 1019.1
20260902164020 97 0 0.9 3.5 0.00 0.00 0.00 48 1019.1
20260902163524 98 32 0.0 3.5 0.00 0.00 0.00 50 1019.3
20260902163053 98 92 0.0 2.6 0.00 0.00 0.00 49 1019.3
20260902162524 98 129 0.0 1.7 0.00 0.00 0.00 50 1019.2
20260902162024 98 0 0.0 2.6 0.00 0.00 0.00 51 1019.3
20260902161543 97 204 0.9 3.5 0.00 0.00 0.00 53 1019.2
20260902161024 97 0 0.9 3.5 0.00 0.00 0.00 56 1019.3
20260902160524 97 171 0.9 3.5 0.00 0.00 0.00 52 1019.3
20260902160040 97 0 0.0 3.5 0.00 0.00 0.00 53 1019.3
20260902155519 96 201 0.0 6.1 0.00 0.00 0.00 53 1019.3
20260902155023 96 289 0.9 6.1 0.00 0.00 0.00 56 1019.4
20260902154541 95 204 1.7 3.5 0.00 0.00 0.00 61 1019.5
20260902154024 94 324 0.0 3.5 0.00 0.00 0.00 59 1019.5
20260902153525 94 0 0.9 3.5 0.00 0.00 0.00 61 1019.5
20260902153045 93 0 0.0 2.6 0.00 0.00 0.00 58 1019.6